SCP
0 0 0 0 0 0 0 0 0 0 0 0 0 0 0 0 0 0 0 0 0 0 0 0 0 0 0 0 0 0 0 0 0 0 0 0 0 0 0 0 0 0 0
0 0 0 0 0 0 0 0 0 0 0 0 0 0 0 0 0 0 0 0 0 0 0 0 0 0 0 0 0 0 0 0 0 0 0 0 0 0 0 0 0 0 0
0 0 0 0 0 0 0 0 0 0 0 0 0 0 0 0 0 0 0 0 0 0 0 0 0 0 0 0 0 0 0 0 0 0 0 0 0 0 0 0 0 0 0
0 0 0 0 0 0 0 0 0 0 0 0 0 0 0 0 0 0 0 0 0 0 0 0 0 0 0 0 0 0 0 0 0 0 0 0 0 0 0 0 0 0 0
0 0 0 0 0 0 0 0 0 0 0 0 0 0 0 0 0 0 0 0 0 0 0 0 0 0 0 0 0 0 0 0 0 0 0 0 0 0 0 0 0 0 0
0 0 0 0 0 0 0 0 0 0 0 0 0 0 0 0 0 0 0 0 0 0 0 0 0 0 0 0 0 0 0 0 0 0 0 0 0 0 0 0 0 0 0
0 0 0 0 0 0 0 0 0 0 0 0 0 0 0 0 0 0 0 0 0 0 0 0 0 0 0 0 0 0 0 0 0 0 0 0 0 0 0 0 0 0 0
0 0 0 0 0 0 0 0 0 0 0 0 0 0 0 0 0 0 0 0 0 0 0 0 0 0 0 0 0 0 0 0 0 0 0 0 0 0 0 0 0 0 0
0 0 0 0 0 0 0 0 0 0 0 0 0 0 0 0 0 0 0 0 0 0 0 0 0 0 0 0 0 0 0 0 0 0 0 0 0 0 0 0 0 0 0
0 0 0 0 0 0 0 0 0 0 0 0 0 0 0 0 0 0 0 0 0 0 0 0 0 0 0 0 0 0 0 0 0 0 0 0 0 0 0 0 0 0 0
0 0 0 0 0 0 0 0 0 0 0 0 0 0 0 0 0 0 0 0 0 0 0 0 0 0 0 0 0 0 0 0 0 0 0 0 0 0 0 0 0 0 0
0 0 0 0 0 0 0 0 0 0 0 0 0 0 0 0 0 0 0 0 0 0 0 0 0 0 0 0 0 0 0 0 0 0 0 0 0 0 0 0 0 0 0
0 0 0 0 0 0 0 0 0 0 0 0 0 0 0 0 0 0 0 0 0 0 0 0 0 0 0 0 0 0 0 0 0 0 0 0 0 0 0 0 0 0 0
0 0 0 0 0 0 0 0 0 0 0 0 0 0 0 0 0 0 0 0 0 0 0 0 0 0 0 0 0 0 0 0 0 0 0 0 0 0 0 0 0 0 0
0 0 0 0 0 0 0 0 0 0 0 0 0 0 0 0 0 0 0 0 0 0 0 0 0 0 0 0 0 0 0 0 0 0 0 0 0 0 0 0 0 0 0
0 0 0 0 0 0 0 0 0 0 0 0 0 0 0 0 0 0 0 0 0 0 0 0 0 0 0 0 0 0 0 0 0 0 0 0 0 0 0 0 0 0 0
0 0 0 0 0 0 0 0 0 0 0 0 0 0 0 0 0 0 0 0 0 0 0 0 0 0 0 0 0 0 0 0 0 0 0 0 0 0 0 0 0 0 0
0 0 0 0 0 0 0 0 0 0 0 0 0 0 0 0 0 0 0 0 0 0 0 0 0 0 0 0 0 0 0 0 0 0 0 0 0 0 0 0 0 0 0
0 0 0 0 0 0 0 0 0 0 0 0 0 0 0 0 0 0 0 0 0 0 0 0 0 0 0 0 0 0 0 0 0 0 0 0 0 0 0 0 0 0 0
0 0 0 0 0 0 0 0 0 0 0 0 0 0 0 0 0 0 0 0 0 0 0 0 0 0 0 0 0 0 0 0 0 0 0 0 0 0 0 0 0 0 0
0 0 0 0 0 0 0 0 0 0 0 0 0 0 0 0 0 0 0 0 0 0 0 0 0 0 0 0 0 0 0 0 0 0 0 0 0 0 0 0 0 0 0
0 0 0 0 0 0 0 0 0 0 0 0 0 0 0 0 0 0 0 0 0 0 0 0 0 0 0 0 0 0 0 0 0 0 0 0 0 0 0 0 0 0 0
0 0 0 0 0 0 0 0 0 0 0 0 0 0 0 0 0 0 0 0 0 0 0 0 0 0 0 0 0 0 0 0 0 0 0 0 0 0 0 0 0 0 0
0 0 0 0 0 0 0 0 0 0 0 0 0 0 0 0 0 0 0 0 0 0 0 0 0 0 0 0 0 0 0 0 0 0 0 0 0 0 0 0 0 0 0
0 0 0 0 0 0 0 0 0 0 0 0 0 0 0 0 0 0 0 0 0 0 0 0 0 0 0 0 0 0 0 0 0 0 0 0 0 0 0 0 0 0 0
0 0 0 0 0 0 0 0 0 0 0 0 0 0 0 0 0 0 0 0 0 0 0 0 0 0 0 0 0 0 0 0 0 0 0 0 0 0 0 0 0 0 0
Wind_Speed_500mb
68 71 74 77 79 82 85 84 80 70 62 66 68 65 61 63 59 65 74 70 75 70 57 53 48 46 44 43 44 38 39 40 38 35 34 36 38 37 34 32 31 28 27
56 63 68 74 78 76 75 68 64 65 66 68 67 69 66 64 62 58 60 66 69 68 59 50 52 51 48 42 50 39 41 37 34 33 34 37 38 37 38 38 34 32 29
33 38 43 51 61 69 71 70 74 74 69 72 71 71 67 67 66 61 62 61 64 63 57 45 47 52 45 50 48 40 36 34 32 30 31 38 37 37 40 39 35 31 32
19 23 27 31 36 44 51 58 64 68 68 60 61 64 64 68 65 54 52 47 61 59 43 43 47 43 42 47 33 31 32 30 29 29 32 36 38 37 37 34 30 30 34
18 20 22 25 29 32 34 38 42 44 44 48 50 53 52 57 55 44 47 62 49 44 41 48 46 43 43 30 29 30 29 27 29 32 30 41 38 35 33 30 30 31 34
19 21 23 26 28 30 33 36 39 41 44 47 50 50 45 35 36 42 39 50 60 42 40 43 40 42 31 30 30 29 26 26 31 30 42 38 35 32 30 31 35 35 34
22 23 22 23 24 25 27 29 29 30 31 26 21 21 26 30 32 39 30 25 29 33 36 39 34 31 31 33 31 26 27 34 33 39 36 34 33 30 30 32 36 35 37
25 22 21 21 21 21 19 18 18 16 12 13 21 23 27 31 29 19 21 26 30 32 30 33 33 32 34 29 23 29 35 35 31 33 32 32 30 30 32 34 35 36 34
26 23 21 22 21 19 17 14 15 15 17 19 18 23 19 25 28 25 27 32 36 36 36 37 35 33 28 27 31 39 38 32 35 32 31 31 30 32 34 36 35 36 33
25 25 26 23 20 17 16 17 18 19 18 21 24 24 27 32 30 27 29 31 34 34 36 37 37 30 26 32 41 36 35 37 35 33 33 33 33 34 37 34 34 33 33
29 27 24 20 18 17 17 18 18 20 22 26 27 27 27 29 29 29 27 30 32 31 33 32 29 28 36 44 38 41 39 37 37 38 39 38 38 39 40 37 36 35 34
26 23 20 18 17 17 17 18 19 21 22 24 25 25 27 28 29 28 26 29 34 34 32 30 32 39 48 44 45 41 40 40 44 45 46 44 43 43 42 40 41 39 37
21 20 19 18 17 18 17 18 19 20 21 23 23 25 25 25 25 24 26 29 31 28 40 48 49 51 51 48 45 44 45 47 50 53 51 48 48 47 47 47 46 43 42
16 17 17 15 14 14 14 15 16 17 18 20 21 22 23 22 23 26 28 36 46 44 54 54 51 49 49 49 52 51 50 51 55 58 56 54 55 52 51 51 50 48 49
16 16 16 16 14 14 14 14 13 13 14 17 18 22 24 24 23 30 35 38 41 40 44 49 52 53 55 56 56 55 56 60 63 62 60 60 58 57 56 55 55 53 53
15 15 13 11 9 8 7 5 7 9 11 14 17 21 24 27 30 33 35 38 40 45 49 54 56 57 58 60 59 58 55 66 68 64 64 64 63 62 60 59 59 58 58
12 11 8 5 3 2 2 4 6 9 13 16 19 23 25 29 32 34 35 37 40 47 54 56 59 61 62 63 63 62 66 69 70 70 68 68 66 65 64 64 62 61 62
13 11 10 7 5 4 4 6 8 10 12 15 19 21 24 25 27 30 34 39 43 49 54 57 61 62 61 62 62 68 73 68 66 71 68 66 64 65 65 65 64 63 62
13 11 9 8 7 5 4 3 3 6 10 13 16 20 25 26 28 30 32 36 40 45 49 54 58 60 59 61 65 68 68 69 67 70 70 70 66 66 70 67 66 64 62
16 14 13 11 11 10 9 8 9 9 10 13 18 22 24 26 30 33 37 40 41 44 49 53 55 59 62 65 68 67 66 67 69 67 65 66 69 70 72 72 72 69 66
18 15 13 11 9 8 9 10 12 15 18 21 25 29 33 37 37 36 36 40 45 47 48 53 57 64 66 68 67 68 68 66 66 68 70 71 71 73 69 70 71 69 66
17 13 10 8 10 14 17 21 25 27 29 31 34 38 42 42 42 45 47 46 47 50 54 60 65 66 68 68 68 69 71 73 71 69 68 66 66 64 65 65 66 65 63
7 7 10 15 19 23 27 31 35 38 40 43 44 45 48 50 50 50 50 50 52 53 54 56 60 62 63 66 67 68 69 67 63 60 59 59 59 59 58 57 57 58 57
7 15 20 23 26 29 33 36 40 42 44 45 48 48 49 49 49 48 49 50 52 52 53 55 57 59 58 57 59 58 57 56 57 57 54 54 57 56 55 54 53 52 50
12 17 23 29 33 36 39 42 44 46 47 48 48 49 49 49 49 49 49 50 51 51 49 48 50 50 48 46 46 48 47 46 47 47 47 47 49 50 49 48 49 47 45
17 23 28 32 36 38 39 41 42 43 44 44 46 47 49 50 50 50 50 49 48 47 44 41 40 40 42 42 41 42 43 43 42 39 41 42 42 44 46 45 45 44 44
Wind_Direction_500mb
241 242 245 247 248 251 255 258 261 263 258 253 252 254 252 254 253 248 247 245 244 245 245 246 246 248 246 249 235 244 240 238 239 239 244 252 254 263 266 256 258 264 274
244 245 246 247 249 249 251 252 252 250 250 249 250 252 252 252 257 252 255 254 249 242 245 238 243 247 250 246 236 241 238 236 234 239 247 251 253 257 252 252 256 262 275
261 259 252 247 246 248 250 249 245 248 247 247 248 250 251 254 253 257 256 256 242 240 241 243 249 250 254 241 224 231 232 230 235 246 257 255 254 251 245 248 258 273 285
257 254 254 252 248 246 245 245 246 248 253 246 247 248 250 253 258 251 257 248 246 238 241 256 237 265 251 237 229 230 228 234 249 259 261 262 260 254 253 256 267 282 290
272 267 263 262 260 259 257 254 252 251 245 245 248 248 246 249 251 244 249 246 233 240 235 233 253 249 223 228 228 229 232 245 259 268 267 267 261 260 265 276 284 291 299
273 270 270 268 268 265 261 258 257 256 254 251 251 252 251 244 234 240 230 245 247 220 245 245 242 230 232 224 226 232 247 261 274 270 272 264 262 264 274 285 295 305 310
263 258 258 261 264 264 263 259 253 247 242 240 233 226 230 227 228 228 218 229 248 245 242 234 231 236 231 228 232 245 269 275 263 271 265 261 262 269 278 292 300 305 310
260 256 260 262 261 259 258 259 260 255 246 229 219 220 231 240 216 220 249 258 251 231 234 239 229 226 226 226 249 271 274 261 268 266 261 260 264 274 285 293 297 301 305
249 244 247 252 253 254 252 242 228 224 222 221 225 235 227 236 236 240 254 249 240 237 231 227 225 225 234 253 278 263 259 272 272 265 259 261 269 277 285 291 296 298 304
239 236 236 239 246 250 239 229 227 229 233 227 214 230 236 235 229 239 246 239 236 232 226 226 229 232 258 282 260 259 277 273 268 265 262 265 270 277 284 287 287 289 292
230 230 232 236 241 242 235 222 226 231 237 240 241 237 233 235 246 252 246 242 239 239 238 240 238 272 284 261 258 274 269 264 265 263 262 267 273 279 282 284 280 279 283
223 225 226 228 234 241 238 227 226 232 237 238 243 245 249 253 255 253 242 238 238 243 244 243 269 284 260 257 261 263 266 267 264 262 262 265 270 275 278 277 277 279 282
208 211 215 219 222 225 231 234 232 234 240 244 248 253 253 258 258 252 248 249 251 253 269 271 262 253 251 256 264 268 270 269 264 263 266 268 270 272 272 273 276 277 278
193 197 202 206 211 219 224 234 231 229 238 246 249 252 253 252 255 256 250 247 263 264 259 254 254 259 260 263 265 269 272 271 268 267 267 267 269 272 273 273 274 275 276
175 184 190 196 199 202 205 213 219 227 237 244 249 254 258 260 259 261 263 264 267 266 261 258 261 264 262 266 269 271 275 275 272 272 271 271 272 272 272 272 273 273 273
151 162 167 174 182 191 197 208 236 253 259 263 264 264 266 270 270 269 267 266 266 264 263 262 263 266 265 268 271 274 276 278 277 277 276 274 273 273 273 272 272 273 274
123 125 132 144 172 198 248 269 265 273 275 278 282 283 280 279 278 279 278 277 275 273 271 270 270 271 273 274 277 279 278 273 279 276 274 274 274 273 272 273 273 273 273
110 103 98 90 70 41 355 321 305 297 293 293 292 291 289 287 287 285 284 280 277 276 277 279 281 281 282 282 284 288 293 283 282 281 277 275 274 273 272 273 275 275 276
107 100 90 82 73 68 59 36 349 323 314 305 299 294 290 290 289 288 287 288 290 287 285 282 284 287 289 291 294 297 295 288 284 282 282 280 274 272 272 275 275 273 271
107 98 88 77 67 54 43 25 8 352 331 315 307 301 298 297 294 291 290 288 286 284 284 285 286 286 289 291 292 295 294 291 288 285 282 281 282 281 277 275 273 271 269
100 92 82 65 50 32 8 346 337 330 324 316 309 304 302 301 300 296 290 286 284 282 281 282 285 288 290 292 294 295 295 293 290 289 287 286 285 284 282 278 276 272 269
103 90 69 36 359 343 334 326 321 317 311 303 300 299 298 296 293 293 293 291 286 283 281 281 282 282 280 280 281 283 285 287 289 289 287 285 284 284 282 280 277 275 272
52 22 353 336 327 321 317 314 310 308 306 303 300 299 298 297 296 294 292 289 288 288 286 285 284 283 281 280 279 279 282 285 288 288 288 288 287 285 283 281 278 276 273
341 330 328 326 322 318 315 312 309 308 307 306 305 304 301 298 297 296 296 297 298 297 296 294 293 294 292 289 287 285 284 284 283 283 282 282 283 283 283 283 281 279 277
331 327 325 324 322 321 319 317 317 317 315 314 313 311 309 307 306 304 302 301 300 299 299 297 297 295 294 291 290 288 286 285 285 285 284 282 281 283 282 280 279 278 275
315 315 317 317 317 318 317 316 317 318 318 318 317 315 313 309 308 307 307 307 307 308 307 305 302 299 299 297 294 290 291 292 291 287 284 282 281 280 280 280 279 278 276
Wind_Speed_850mb
68 71 74 77 79 82 85 84 80 70 62 66 68 65 61 63 59 65 74 70 75 70 57 53 48 46 44 43 44 38 39 40 38 35 34 36 38 37 34 32 31 28 27
56 63 68 74 78 76 75 68 64 65 66 68 67 69 66 64 62 58 60 66 69 68 59 50 52 51 48 42 50 39 41 37 34 33 34 37 38 37 38 38 34 32 29
33 38 43 51 61 69 71 70 74 74 69 72 71 71 67 67 66 61 62 61 64 63 57 45 47 52 45 50 48 40 36 34 32 30 31 38 37 37 40 39 35 31 32
19 23 27 31 36 44 51 58 64 68 68 60 61 64 64 68 65 54 52 47 61 59 43 43 47 43 42 47 33 31 32 30 29 29 32 36 38 37 37 34 30 30 34
18 20 22 25 29 32 34 38 42 44 44 48 50 53 52 57 55 44 47 62 49 44 41 48 46 43 43 30 29 30 29 27 29 32 30 41 38 35 33 30 30 31 34
19 21 23 26 28 30 33 36 39 41 44 47 50 50 45 35 36 42 39 50 60 42 40 43 40 42 31 30 30 29 26 26 31 30 42 38 35 32 30 31 35 35 34
22 23 22 23 24 25 27 29 29 30 31 26 21 21 26 30 32 39 30 25 29 33 36 39 34 31 31 33 31 26 27 34 33 39 36 34 33 30 30 32 36 35 37
25 22 21 21 21 21 19 18 18 16 12 13 21 23 27 31 29 19 21 26 30 32 30 33 33 32 34 29 23 29 35 35 31 33 32 32 30 30 32 34 35 36 34
26 23 21 22 21 19 17 14 15 15 17 19 18 23 19 25 28 25 27 32 36 36 36 37 35 33 28 27 31 39 38 32 35 32 31 31 30 32 34 36 35 36 33
25 25 26 23 20 17 16 17 18 19 18 21 24 24 27 32 30 27 29 31 34 34 36 37 37 30 26 32 41 36 35 37 35 33 33 33 33 34 37 34 34 33 33
29 27 24 20 18 17 17 18 18 20 22 26 27 27 27 29 29 29 27 30 32 31 33 32 29 28 36 44 38 41 39 37 37 38 39 38 38 39 40 37 36 35 34
26 23 20 18 17 17 17 18 19 21 22 24 25 25 27 28 29 28 26 29 34 34 32 30 32 39 48 44 45 41 40 40 44 45 46 44 43 43 42 40 41 39 37
21 20 19 18 17 18 17 18 19 20 21 23 23 25 25 25 25 24 26 29 31 28 40 48 49 51 51 48 45 44 45 47 50 53 51 48 48 47 47 47 46 43 42
16 17 17 15 14 14 14 15 16 17 18 20 21 22 23 22 23 26 28 36 46 44 54 54 51 49 49 49 52 51 50 51 55 58 56 54 55 52 51 51 50 48 49
16 16 16 16 14 14 14 14 13 13 14 17 18 22 24 24 23 30 35 38 41 40 44 49 52 53 55 56 56 55 56 60 63 62 60 60 58 57 56 55 55 53 53
15 15 13 11 9 8 7 5 7 9 11 14 17 21 24 27 30 33 35 38 40 45 49 54 56 57 58 60 59 58 55 66 68 64 64 64 63 62 60 59 59 58 58
12 11 8 5 3 2 2 4 6 9 13 16 19 23 25 29 32 34 35 37 40 47 54 56 59 61 62 63 63 62 66 69 70 70 68 68 66 65 64 64 62 61 62
13 11 10 7 5 4 4 6 8 10 12 15 19 21 24 25 27 30 34 39 43 49 54 57 61 62 61 62 62 68 73 68 66 71 68 66 64 65 65 65 64 63 62
13 11 9 8 7 5 4 3 3 6 10 13 16 20 25 26 28 30 32 36 40 45 49 54 58 60 59 61 65 68 68 69 67 70 70 70 66 66 70 67 66 64 62
16 14 13 11 11 10 9 8 9 9 10 13 18 22 24 26 30 33 37 40 41 44 49 53 55 59 62 65 68 67 66 67 69 67 65 66 69 70 72 72 72 69 66
18 15 13 11 9 8 9 10 12 15 18 21 25 29 33 37 37 36 36 40 45 47 48 53 57 64 66 68 67 68 68 66 66 68 70 71 71 73 69 70 71 69 66
17 13 10 8 10 14 17 21 25 27 29 31 34 38 42 42 42 45 47 46 47 50 54 60 65 66 68 68 68 69 71 73 71 69 68 66 66 64 65 65 66 65 63
7 7 10 15 19 23 27 31 35 38 40 43 44 45 48 50 50 50 50 50 52 53 54 56 60 62 63 66 67 68 69 67 63 60 59 59 59 59 58 57 57 58 57
7 15 20 23 26 29 33 36 40 42 44 45 48 48 49 49 49 48 49 50 52 52 53 55 57 59 58 57 59 58 57 56 57 57 54 54 57 56 55 54 53 52 50
12 17 23 29 33 36 39 42 44 46 47 48 48 49 49 49 49 49 49 50 51 51 49 48 50 50 48 46 46 48 47 46 47 47 47 47 49 50 49 48 49 47 45
17 23 28 32 36 38 39 41 42 43 44 44 46 47 49 50 50 50 50 49 48 47 44 41 40 40 42 42 41 42 43 43 42 39 41 42 42 44 46 45 45 44 44
Wind_Direction_850mb
241 242 245 247 248 251 255 258 261 263 258 253 252 254 252 254 253 248 247 245 244 245 245 246 246 248 246 249 235 244 240 238 239 239 244 252 254 263 266 256 258 264 274
244 245 246 247 249 249 251 252 252 250 250 249 250 252 252 252 257 252 255 254 249 242 245 238 243 247 250 246 236 241 238 236 234 239 247 251 253 257 252 252 256 262 275
261 259 252 247 246 248 250 249 245 248 247 247 248 250 251 254 253 257 256 256 242 240 241 243 249 250 254 241 224 231 232 230 235 246 257 255 254 251 245 248 258 273 285
257 254 254 252 248 246 245 245 246 248 253 246 247 248 250 253 258 251 257 248 246 238 241 256 237 265 251 237 229 230 228 234 249 259 261 262 260 254 253 256 267 282 290
272 267 263 262 260 259 257 254 252 251 245 245 248 248 246 249 251 244 249 246 233 240 235 233 253 249 223 228 228 229 232 245 259 268 267 267 261 260 265 276 284 291 299
273 270 270 268 268 265 261 258 257 256 254 251 251 252 251 244 234 240 230 245 247 220 245 245 242 230 232 224 226 232 247 261 274 270 272 264 262 264 274 285 295 305 310
263 258 258 261 264 264 263 259 253 247 242 240 233 226 230 227 228 228 218 229 248 245 242 234 231 236 231 228 232 245 269 275 263 271 265 261 262 269 278 292 300 305 310
260 256 260 262 261 259 258 259 260 255 246 229 219 220 231 240 216 220 249 258 251 231 234 239 229 226 226 226 249 271 274 261 268 266 261 260 264 274 285 293 297 301 305
249 244 247 252 253 254 252 242 228 224 222 221 225 235 227 236 236 240 254 249 240 237 231 227 225 225 234 253 278 263 259 272 272 265 259 261 269 277 285 291 296 298 304
239 236 236 239 246 250 239 229 227 229 233 227 214 230 236 235 229 239 246 239 236 232 226 226 229 232 258 282 260 259 277 273 268 265 262 265 270 277 284 287 287 289 292
230 230 232 236 241 242 235 222 226 231 237 240 241 237 233 235 246 252 246 242 239 239 238 240 238 272 284 261 258 274 269 264 265 263 262 267 273 279 282 284 280 279 283
223 225 226 228 234 241 238 227 226 232 237 238 243 245 249 253 255 253 242 238 238 243 244 243 269 284 260 257 261 263 266 267 264 262 262 265 270 275 278 277 277 279 282
208 211 215 219 222 225 231 234 232 234 240 244 248 253 253 258 258 252 248 249 251 253 269 271 262 253 251 256 264 268 270 269 264 263 266 268 270 272 272 273 276 277 278
193 197 202 206 211 219 224 234 231 229 238 246 249 252 253 252 255 256 250 247 263 264 259 254 254 259 260 263 265 269 272 271 268 267 267 267 269 272 273 273 274 275 276
175 184 190 196 199 202 205 213 219 227 237 244 249 254 258 260 259 261 263 264 267 266 261 258 261 264 262 266 269 271 275 275 272 272 271 271 272 272 272 272 273 273 273
151 162 167 174 182 191 197 208 236 253 259 263 264 264 266 270 270 269 267 266 266 264 263 262 263 266 265 268 271 274 276 278 277 277 276 274 273 273 273 272 272 273 274
123 125 132 144 172 198 248 269 265 273 275 278 282 283 280 279 278 279 278 277 275 273 271 270 270 271 273 274 277 279 278 273 279 276 274 274 274 273 272 273 273 273 273
110 103 98 90 70 41 355 321 305 297 293 293 292 291 289 287 287 285 284 280 277 276 277 279 281 281 282 282 284 288 293 283 282 281 277 275 274 273 272 273 275 275 276
107 100 90 82 73 68 59 36 349 323 314 305 299 294 290 290 289 288 287 288 290 287 285 282 284 287 289 291 294 297 295 288 284 282 282 280 274 272 272 275 275 273 271
107 98 88 77 67 54 43 25 8 352 331 315 307 301 298 297 294 291 290 288 286 284 284 285 286 286 289 291 292 295 294 291 288 285 282 281 282 281 277 275 273 271 269
100 92 82 65 50 32 8 346 337 330 324 316 309 304 302 301 300 296 290 286 284 282 281 282 285 288 290 292 294 295 295 293 290 289 287 286 285 284 282 278 276 272 269
103 90 69 36 359 343 334 326 321 317 311 303 300 299 298 296 293 293 293 291 286 283 281 281 282 282 280 280 281 283 285 287 289 289 287 285 284 284 282 280 277 275 272
52 22 353 336 327 321 317 314 310 308 306 303 300 299 298 297 296 294 292 289 288 288 286 285 284 283 281 280 279 279 282 285 288 288 288 288 287 285 283 281 278 276 273
341 330 328 326 322 318 315 312 309 308 307 306 305 304 301 298 297 296 296 297 298 297 296 294 293 294 292 289 287 285 284 284 283 283 282 282 283 283 283 283 281 279 277
331 327 325 324 322 321 319 317 317 317 315 314 313 311 309 307 306 304 302 301 300 299 299 297 297 295 294 291 290 288 286 285 285 285 284 282 281 283 282 280 279 278 275
315 315 317 317 317 318 317 316 317 318 318 318 317 315 313 309 308 307 307 307 307 308 307 305 302 299 299 297 294 290 291 292 291 287 284 282 281 280 280 280 279 278 276